Hourly Data Report for September 23, 2017

All times are specified in Local Standard Time (LST). Add 1 hour to adjust for Daylight Saving Time where and when it is observed.

KUGAARUK CLIMATE
NUNAVUT

68°32'15.060" N
89°47'47.020" W
15.80 m
2303094
71407
NBB

Download Data

Hourly Data (September 2017)
Hourly Data Report for September 23, 2017
Temp Definition
°C
Dew Point Temp Definition
°C
Rel Hum Definition
%
Wind Dir Definition
10's deg

Wind Spd Definition
km/h
Visibility Definition
km
Stn Press Definition
kPa
Hmdx Definition


Wind Chill Definition


Weather Definition


TIME
00:00 -1.2 -3.3 86 29 7   102.11   -4 LegendNANA
01:00 -1.6 -3.2 89 30 12   102.14   -6 LegendNANA
02:00 -1.3 -3.6 85 29 14   102.14   -6 LegendNANA
03:00 -1.5 -3.4 87 28 19   102.14   -7 LegendNANA
04:00 -1.7 -4.1 84 29 17   102.16   -7 LegendNANA
05:00 -1.9 -4.1 85 28 16   102.16   -7 LegendNANA
06:00 -1.9 -4.1 85 28 14   102.13   -7 LegendNANA
07:00 -1.6 -4.2 83 28 15   102.11   -6 LegendNANA
08:00 -1.9 -4.4 83 28 16   102.13   -7 LegendNANA
09:00 -1.6 -4.0 84 27 20   102.10   -7 LegendNANA
10:00 -1.3 -3.8 83 28 17   102.09   -6 LegendNANA
11:00 -1.0 -3.8 81 26 22   102.05   -7 LegendNANA
12:00 -0.9 -4.4 77 29 20   102.08   -6 LegendNANA
13:00 -0.4 -4.0 77 29 20   102.06   -6 LegendNANA
14:00 -0.1 -4.0 75 29 22   102.05   -6 LegendNANA
15:00 -0.5 -4.2 76 30 17   102.04   -5 LegendNANA
16:00 -0.4 -3.8 78 30 20   102.03   -6 LegendNANA
17:00 -0.9 -3.7 81 31 19   102.03   -6 LegendNANA
18:00 -0.9 -3.2 84 31 11   102.02   -5 LegendNANA
19:00 -1.1 -2.6 90 30 14   102.00   -6 LegendNANA
20:00 -1.4 -4.2 81 33 15   102.01   -6 LegendNANA
21:00 -1.6 -4.6 80 32 12   102.01   -6 LegendNANA
22:00 -1.1 -4.5 78 30 14   102.00   -6 LegendNANA
23:00 -1.2 -4.8 77 29 14   102.00   -6 LegendNANA

Notes on Data Quality.

Legend

  • E = Estimated
  • M = Missing
  • NA = Not Available
  • ‡ = Partner data that is not subject to review by the National Climate Archives
Date modified: